• In Russia
  • List of Countries
  • For 7 days
  • Water Temperature
  • Weather Map
  • Weather Widgets
  • user-avatar
    Login

    Hourly Weather Ghazni

    Today, 29 March, Sunday

    Time Temperature Precipitation Wind Pressure Humidity
    00:00 +6°C° 0 mm 2 mps 585 mmHg 57%
    01:00 +5°C° 0 mm 2 mps 585 mmHg 59%
    02:00 +5°C° 0 mm 2 mps 585 mmHg 60%
    03:00 +5°C° 0 mm 1 mps 584 mmHg 61%
    04:00 +5°C° 0 mm 1 mps 584 mmHg 61%
    05:00 +5°C° 0 mm 1 mps 584 mmHg 63%
    06:00 +5°C° 0 mm 1 mps 584 mmHg 60%
    07:00 +6°C° 0 mm 1 mps 585 mmHg 57%
    08:00 +6°C° 0 mm 1 mps 586 mmHg 54%
    09:00 +7°C° 0 mm 1 mps 586 mmHg 52%
    10:00 +8°C° 0 mm 1 mps 586 mmHg 49%
    11:00 +9°C° 0 mm 1 mps 586 mmHg 48%
    12:00 +9°C° 0 mm 2 mps 586 mmHg 45%
    13:00 +10°C° 0 mm 2 mps 586 mmHg 43%
    14:00 +12°C° 0 mm 2 mps 586 mmHg 40%
    15:00 +11°C° 0 mm 3 mps 586 mmHg 38%
    16:00 +11°C° 0 mm 3 mps 586 mmHg 37%
    17:00 +12°C° 0 mm 4 mps 585 mmHg 35%
    18:00 +11°C° 0 mm 4 mps 586 mmHg 39%
    19:00 +10°C° 0 mm 3 mps 586 mmHg 43%
    20:00 +10°C° 0 mm 3 mps 586 mmHg 47%
    21:00 +8°C° 0 mm 4 mps 586 mmHg 51%
    22:00 +8°C° 0 mm 4 mps 586 mmHg 55%
    23:00 +8°C° 0 mm 5 mps 586 mmHg 59%

    Tomorrow, 30 March, Monday

    Time Temperature Precipitation Wind Pressure Humidity
    00:00 +7°C° 1.1 mm 4 mps 585 mmHg 70%
    01:00 +7°C° 1.1 mm 3 mps 585 mmHg 80%
    02:00 +6°C° 1.1 mm 2 mps 584 mmHg 91%
    03:00 +6°C° 3.4 mm 2 mps 584 mmHg 92%
    04:00 +6°C° 3.4 mm 2 mps 583 mmHg 93%
    05:00 +4°C° 3.4 mm 3 mps 583 mmHg 94%
    06:00 +5°C° 1 mm 3 mps 584 mmHg 92%
    07:00 +5°C° 1 mm 3 mps 584 mmHg 91%
    08:00 +7°C° 1 mm 3 mps 585 mmHg 89%
    09:00 +7°C° 0.3 mm 3 mps 585 mmHg 86%
    10:00 +8°C° 0.3 mm 2 mps 585 mmHg 83%
    11:00 +8°C° 0.3 mm 2 mps 585 mmHg 81%
    12:00 +9°C° 0 mm 2 mps 586 mmHg 77%
    13:00 +10°C° 0 mm 2 mps 586 mmHg 74%
    14:00 +10°C° 0 mm 2 mps 586 mmHg 71%
    15:00 +10°C° 0.3 mm 2 mps 585 mmHg 71%
    16:00 +10°C° 0.3 mm 2 mps 585 mmHg 72%
    17:00 +10°C° 0.3 mm 2 mps 584 mmHg 73%
    18:00 +8°C° 3.6 mm 4 mps 584 mmHg 79%
    19:00 +7°C° 3.6 mm 5 mps 584 mmHg 86%
    20:00 +5°C° 3.6 mm 7 mps 584 mmHg 92%
    21:00 +5°C° 2.8 mm 6 mps 584 mmHg 92%
    22:00 +5°C° 2.8 mm 6 mps 584 mmHg 92%
    23:00 +5°C° 2.8 mm 5 mps 583 mmHg 92%

    Day after tomorrow, 31 March, Tuesday

    Time Temperature Precipitation Wind Pressure Humidity
    00:00 +5°C° 3.8 mm 5 mps 583 mmHg 92%
    01:00 +4°C° 3.8 mm 6 mps 583 mmHg 92%
    02:00 +4°C° 3.8 mm 6 mps 583 mmHg 92%
    03:00 +4°C° 1.7 mm 6 mps 582 mmHg 92%
    04:00 +5°C° 1.7 mm 5 mps 582 mmHg 92%
    05:00 +5°C° 1.7 mm 5 mps 582 mmHg 92%
    06:00 +5°C° 1.9 mm 4 mps 582 mmHg 92%
    07:00 +5°C° 1.9 mm 3 mps 582 mmHg 93%
    08:00 +5°C° 1.9 mm 2 mps 582 mmHg 94%
    09:00 +4°C° 2.6 mm 3 mps 582 mmHg 94%
    10:00 +4°C° 2.6 mm 3 mps 582 mmHg 94%
    11:00 +4°C° 2.6 mm 4 mps 582 mmHg 94%
    12:00 +5°C° 0.1 mm 4 mps 582 mmHg 88%
    13:00 +6°C° 0.1 mm 4 mps 583 mmHg 82%
    14:00 +7°C° 0.1 mm 4 mps 583 mmHg 76%
    15:00 +8°C° 0.1 mm 4 mps 583 mmHg 72%
    16:00 +8°C° 0.1 mm 4 mps 583 mmHg 69%
    17:00 +10°C° 0.1 mm 4 mps 583 mmHg 65%
    18:00 +8°C° 0 mm 4 mps 583 mmHg 68%
    19:00 +7°C° 0 mm 3 mps 583 mmHg 72%
    20:00 +5°C° 0 mm 3 mps 583 mmHg 75%
    21:00 +6°C° 0 mm 2 mps 583 mmHg 74%
    22:00 +5°C° 0 mm 2 mps 583 mmHg 74%
    23:00 +5°C° 0 mm 2 mps 583 mmHg 74%

    1 April, Wednesday

    Time Temperature Precipitation Wind Pressure Humidity
    00:00 +4°C° 0 mm 2 mps 583 mmHg 74%
    01:00 +4°C° 0 mm 2 mps 583 mmHg 75%
    02:00 +4°C° 0 mm 2 mps 582 mmHg 75%
    03:00 +4°C° 0 mm 2 mps 582 mmHg 76%
    04:00 +5°C° 0 mm 1 mps 582 mmHg 76%
    05:00 +5°C° 0 mm 1 mps 582 mmHg 76%
    06:00 +5°C° 0 mm 1 mps 583 mmHg 77%
    07:00 +4°C° 0 mm 2 mps 583 mmHg 77%
    08:00 +4°C° 0 mm 2 mps 584 mmHg 77%
    09:00 +5°C° 0 mm 2 mps 584 mmHg 77%
    10:00 +4°C° 0 mm 3 mps 584 mmHg 76%
    11:00 +5°C° 0 mm 3 mps 585 mmHg 76%
    12:00 +7°C° 0 mm 3 mps 585 mmHg 68%
    13:00 +9°C° 0 mm 3 mps 585 mmHg 60%
    14:00 +10°C° 0 mm 3 mps 585 mmHg 51%
    15:00 +10°C° 0 mm 4 mps 585 mmHg 47%
    16:00 +10°C° 0 mm 4 mps 585 mmHg 42%
    17:00 +10°C° 0 mm 5 mps 584 mmHg 37%
    18:00 +8°C° 0 mm 4 mps 584 mmHg 43%
    19:00 +7°C° 0 mm 4 mps 585 mmHg 48%
    20:00 +7°C° 0 mm 3 mps 585 mmHg 54%
    21:00 +5°C° 0 mm 3 mps 584 mmHg 56%
    22:00 +5°C° 0 mm 3 mps 584 mmHg 58%
    23:00 +5°C° 0 mm 2 mps 584 mmHg 60%

    2 April, Thursday

    Time Temperature Precipitation Wind Pressure Humidity
    00:00 +5°C° 0 mm 2 mps 584 mmHg 60%
    01:00 +4°C° 0 mm 2 mps 584 mmHg 61%
    02:00 +4°C° 0 mm 2 mps 583 mmHg 61%
    03:00 +3°C° 0 mm 2 mps 583 mmHg 61%
    04:00 +3°C° 0 mm 2 mps 583 mmHg 61%
    05:00 +2°C° 0 mm 2 mps 583 mmHg 62%
    06:00 +3°C° 0 mm 2 mps 583 mmHg 58%
    07:00 +3°C° 0 mm 2 mps 584 mmHg 55%
    08:00 +4°C° 0 mm 2 mps 584 mmHg 52%
    09:00 +5°C° 0 mm 2 mps 585 mmHg 47%
    10:00 +8°C° 0 mm 1 mps 585 mmHg 42%
    11:00 +9°C° 0 mm 1 mps 585 mmHg 37%
    12:00 +10°C° 0 mm 1 mps 586 mmHg 35%
    13:00 +11°C° 0 mm 1 mps 586 mmHg 32%
    14:00 +12°C° 0 mm 2 mps 586 mmHg 30%
    15:00 +12°C° 0 mm 1 mps 586 mmHg 29%
    16:00 +13°C° 0 mm 1 mps 586 mmHg 28%
    17:00 +13°C° 0 mm 1 mps 585 mmHg 28%
    18:00 +12°C° 0 mm 1 mps 585 mmHg 33%
    19:00 +9°C° 0 mm 2 mps 585 mmHg 39%
    20:00 +8°C° 0 mm 2 mps 585 mmHg 45%
    21:00 +7°C° 0 mm 2 mps 585 mmHg 45%
    22:00 +7°C° 0 mm 2 mps 585 mmHg 46%
    23:00 +6°C° 0 mm 2 mps 585 mmHg 47%

    3 April, Friday

    Time Temperature Precipitation Wind Pressure Humidity
    00:00 +6°C° 0 mm 2 mps 585 mmHg 47%
    01:00 +5°C° 0 mm 2 mps 585 mmHg 47%
    02:00 +5°C° 0 mm 2 mps 584 mmHg 46%
    03:00 +5°C° 0 mm 2 mps 584 mmHg 47%
    04:00 +4°C° 0 mm 2 mps 584 mmHg 48%
    05:00 +4°C° 0 mm 2 mps 584 mmHg 48%
    06:00 +5°C° 0 mm 2 mps 585 mmHg 47%
    07:00 +5°C° 0 mm 2 mps 585 mmHg 46%
    08:00 +6°C° 0 mm 2 mps 586 mmHg 44%
    09:00 +7°C° 0 mm 2 mps 586 mmHg 43%
    10:00 +10°C° 0 mm 1 mps 587 mmHg 41%
    11:00 +11°C° 0 mm 1 mps 587 mmHg 39%
    12:00 +12°C° 0 mm 1 mps 587 mmHg 38%
    13:00 +13°C° 0 mm 1 mps 588 mmHg 36%
    14:00 +14°C° 0 mm 1 mps 588 mmHg 35%
    15:00 +15°C° 0 mm 1 mps 588 mmHg 33%
    16:00 +15°C° 0 mm 1 mps 587 mmHg 32%
    17:00 +15°C° 0 mm 1 mps 587 mmHg 31%
    18:00 +14°C° 0 mm 1 mps 587 mmHg 36%
    19:00 +13°C° 0 mm 1 mps 587 mmHg 42%
    20:00 +12°C° 0 mm 1 mps 587 mmHg 47%
    21:00 +12°C° 0 mm 1 mps 587 mmHg 47%
    22:00 +11°C° 0 mm 1 mps 587 mmHg 48%
    23:00 +10°C° 0 mm 2 mps 587 mmHg 48%
    Show more